Starlink 2100

operational
NORAD ID: 47380 Int'l Des: 2021-005 Owner: SPXS Country: US Constellation: starlink
LEOCIRCULARSTARLINK_TYPE

About Starlink 2100

Description loading...

Live Position

Loading 3D Globe...

Upcoming Passes

Altitude History

Altitude vs Time

uPlot chart will show altitude changes over time

Two-Line Element Set

1 47380U 21005AH 26061.17227041 .00001448 00000-0 11609-3 0 9996
2 47380 53.0553 65.3667 0001402 89.7336 270.3813 15.06397503282332
Epoch: Mar 2, 2026 • Age: 45 hours

Current Status

Altitude 549.7 km
Velocity 7.59 km/s
Sub-Earth Point 38.72°N, 91.68°E
Launch Date Jan 20, 2021
Age 5.1 years
Type internet

Technical Details

Classification Payload
Mass 260.00 kg
Dry Mass 248.00 kg
Total Mass 260.00 kg
Length 0.20 m
Diameter 2.80 m
Span 9.00 m
Shape Box + pan
Manufacturer SPXS
Bus Type Starlink
Phase Status In Orbit
Owner/State SPXS/US

Large Constellations

Loading constellations...